STARLINK-11270, 60999

Orbit data source: Space-Track

STARLINK-11270, 60999 is a payload satellite owned by SpaceX/Seattle (US) in LEO that was launched on Thu, 05 Sep 2024 UTC via an FALCON 9 launch vehicle from the Air Force Eastern Test Range (AFETR). Payload-class satellites include a variety of spacecraft equipped with specific instruments for various scientific and technological missions. These include communications satellites like Starlink; space stations such as the ISS; scientific satellites like the Hubble; Earth observation satellites from companies like Planet Labs, Umbra, and HawkEye 360; GPS; miniature CubeSats for education and research; and military/defense satellites.

Loading next visibility...
Identifier
60999, 2024-158K
Orbit
LEO
Last TLE update
1 day ago
Origin
Manufacturer
SpaceX/Seattle
Mission
Operational Commercial Communications
Bus & Motor
STARLINK V2M, Unknown motor
Mass
730 kg wet, ~700 kg dry
Launch date (UTC)
2024-09-05 (10 months ago)
Launch vehicle
FALCON 9
Launch site
Air Force Eastern Test Range (AFETR)
Object type
Payload
Rocket body
Debris
Shape & HBR
Box + 2 Pan, 14.5 m
Radar Cross Section
36.964 m², Large (>1 m²)

Expand to show TLE details & history

TLE from 1 day ago
0 STARLINK-11270
1 60999U 24158K   25198.17678027 -.00001785  00000-0 -98863-5 0  9998
2 60999  53.1582   2.3330 0000407  34.6176 325.4868 15.69706372 50612
Epoch: 2025-07-17T04:14Z
TLE epoch observation values (Epoch: 2025-07-17T04:14:33.815Z)
Latitude
-0.00004°
Longitude
3.44573°
Altitude
360.426 km
Speed
7.694 km/s
True Right ascension
00h 09m 19s
True Declination
0° 00' 00"
Sunlit
Object was in full shadow at epoch
Visualization orbit readout
Latitude
7.79961°
Longitude
171.47474°
Altitude
360.165 km
Speed
7.695 km/s
Apparent Right ascension
11h 06m 08s
Apparent Declination
-15° 19' 26"
Sunlit
Object is in daylight
Visualization observer readout
Local Sidereal Time
22:45:16
Azimuth
348.028° N
Elevation
-64.989°
Doppler factor
1
Orbital elements
Apogee altitude
360.272 km
Perigee altitude
359.724 km
Semi-major axis
6,738.135 km
Eccentricity
0.00004
Inclination
53.1582°
RAAN
2.333°
Arg. of periapsis
34.6176°
True anomaly
325.48416°
Mean anomaly
325.4868°
Eccentric anomaly
325.48548°
Mean motion
3.92404 °/min
Orbital period
91.74 mins
BSTAR
-0.0000098863
Loading maneuver chart data...
Loading SW <> Apogee altitude chart data...
Loading historical data...
Loading historical data...
Loading historical data...
Loading historical data...
Loading historical data...
Loading historical data...
Loading historical data...
|